DW3648 Weather Reports


time (UTC)temp
C
wind
direction
speed
KPH
gust
KPH
rain 1hr
cm
rain 24hr
cm
rain mn
cm
humidity
%
barometer
mb
20260507043012 10 81 0.0 6.4 0.00 0.00 0.00 73 1004.0
20260507041509 10 95 3.2 9.7 0.00 0.00 0.00 72 1004.1
20260507040039 11 108 0.0 9.7 0.00 0.00 0.00 72 1004.2
20260507034540 11 105 1.6 11.3 0.00 0.00 0.00 71 1004.1
20260507033013 11 100 1.6 8.0 0.00 0.00 0.00 70 1004.1
20260507031503 11 96 0.0 8.0 0.00 0.00 0.00 69 1004.1
20260507030101 11 96 0.0 4.8 0.00 0.00 0.00 69 1004.1
20260507024605 11 87 1.6 4.8 0.00 0.00 0.00 68 1003.9
20260507023057 12 86 0.0 3.2 0.00 0.00 0.00 67 1003.9
20260507021555 12 86 1.6 9.7 0.00 0.00 0.00 66 1003.8
20260507020050 12 106 3.2 8.0 0.00 0.00 0.00 65 1003.8
20260507014554 13 346 0.0 3.2 0.00 0.00 0.00 62 1004.1
20260507013048 13 346 0.0 0.0 0.00 0.00 0.00 59 1004.1
20260507011542 13 346 0.0 3.2 0.00 0.00 0.00 59 1004.2
20260507010037 14 346 0.0 1.6 0.00 0.00 0.00 58 1004.3
20260507004539 14 346 0.0 6.4 0.00 0.00 0.00 58 1004.3
20260507003035 14 346 0.0 3.2 0.00 0.00 0.00 57 1004.4
20260507001540 14 346 1.6 6.4 0.00 0.00 0.00 57 1004.4
20260507000032 15 37 1.6 8.0 0.00 0.00 0.00 57 1004.7
20260506234531 15 346 0.0 6.4 0.00 0.00 0.00 58 1004.7
20260506233030 15 321 0.0 3.2 0.00 0.00 0.00 58 1004.6
20260506231530 15 38 0.0 6.4 0.00 0.00 0.00 58 1004.7
20260506230028 15 143 0.0 0.0 0.00 0.00 0.00 59 1004.6
20260506224528 15 143 0.0 3.2 0.00 0.00 0.00 57 1004.6
20260506223027 15 152 0.0 6.4 0.00 0.00 0.00 57 1004.7
20260506221526 15 162 3.2 11.3 0.00 0.00 0.00 56 1004.7
20260506220034 15 200 1.6 11.3 0.00 0.00 0.00 56 1004.8
20260506214527 15 208 1.6 8.0 0.00 0.00 0.00 58 1004.8
20260506213028 16 194 1.6 8.0 0.00 0.00 0.00 55 1004.7
20260506211522 16 190 0.0 8.0 0.00 0.00 0.00 48 1004.6
20260506210023 16 184 1.6 16.1 0.00 0.00 0.00 44 1004.5
20260506204553 16 198 1.6 6.4 0.00 0.00 0.00 44 1004.1
20260506203052 16 136 0.0 0.0 0.00 0.00 0.00 45 1003.9
20260506201521 16 101 0.0 8.0 0.00 0.00 0.00 45 1003.7
20260506200022 17 181 0.0 8.0 0.00 0.00 0.00 46 1003.6
20260506194517 17 113 3.2 11.3 0.00 0.00 0.00 47 1003.2
20260506193016 18 221 3.2 11.3 0.00 0.00 0.00 47 1003.0
20260506191516 18 181 1.6 9.7 0.00 0.00 0.00 46 1002.8
20260506190023 18 222 4.8 9.7 0.00 0.00 0.00 45 1002.8
20260506184549 18 196 3.2 9.7 0.00 0.00 0.00 45 1002.7
20260506183051 19 96 4.8 12.9 0.00 0.00 0.00 45 1002.7
20260506181553 19 159 1.6 14.5 0.00 0.00 0.00 42 1002.8
20260506180100 20 152 3.2 11.3 0.00 0.00 0.00 41 1002.7
20260506174540 20 190 0.0 12.9 0.00 0.00 0.00 41 1002.7
20260506173045 20 242 6.4 11.3 0.00 0.00 0.00 40 1002.6
20260506171537 20 244 1.6 17.7 0.00 0.00 0.00 40 1002.6
20260506170037 21 221 4.8 14.5 0.00 0.00 0.00 38 1002.6
20260506164536 22 194 1.6 14.5 0.00 0.00 0.00 37 1002.5
20260506163038 22 173 3.2 12.9 0.00 0.00 0.00 36 1002.5
20260506161536 22 125 3.2 12.9 0.00 0.00 0.00 36 1002.5
20260506160036 22 240 0.0 12.9 0.00 0.00 0.00 37 1002.6
20260506154531 22 171 4.8 14.5 0.00 0.00 0.00 35 1002.7
20260506153031 22 182 8.0 17.7 0.00 0.00 0.00 36 1002.7
20260506151600 22 192 6.4 16.1 0.00 0.00 0.00 35 1002.9
20260506150100 23 202 8.0 17.7 0.00 0.00 0.00 32 1003.1
20260506144605 22 108 0.0 24.1 0.00 0.00 0.00 33 1003.3
20260506143054 22 216 4.8 11.3 0.00 0.00 0.00 34 1003.5
20260506141552 22 263 4.8 16.1 0.00 0.00 0.00 35 1003.6
20260506140051 22 5 0.0 12.9 0.00 0.00 0.00 35 1003.7
20260506134548 22 211 1.6 12.9 0.00 0.00 0.00 34 1003.7
20260506133046 21 198 3.2 17.7 0.00 0.00 0.00 36 1003.8
20260506131544 21 273 3.2 16.1 0.00 0.00 0.00 36 1003.9
20260506130043 21 275 1.6 12.9 0.00 0.00 0.00 34 1003.9
20260506124540 21 355 6.4 12.9 0.00 0.00 0.00 34 1004.0
20260506123039 21 207 1.6 11.3 0.00 0.00 0.00 35 1004.2
20260506121539 21 230 3.2 14.5 0.00 0.00 0.00 35 1004.4
20260506120034 21 178 1.6 12.9 0.00 0.00 0.00 36 1004.5
20260506114505 21 188 3.2 11.3 0.00 0.00 0.00 36 1004.6
20260506113003 21 93 3.2 9.7 0.00 0.00 0.00 36 1004.7
20260506111559 20 186 0.0 9.7 0.00 0.00 0.00 37 1004.9
20260506110053 20 166 0.0 9.7 0.00 0.00 0.00 37 1005.1
20260506104555 18 169 1.6 9.7 0.00 0.00 0.00 38 1005.5
20260506103048 18 261 3.2 12.9 0.00 0.00 0.00 38 1005.6
20260506101515 18 281 3.2 9.7 0.00 0.00 0.00 41 1005.8
20260506100013 18 296 3.2 6.4 0.00 0.00 0.00 43 1005.8
20260506094507 17 259 1.6 8.0 0.00 0.00 0.00 45 1005.9
20260506093002 16 267 1.6 9.7 0.00 0.00 0.00 47 1005.8
20260506091604 16 279 0.0 6.4 0.00 0.00 0.00 49 1006.0
20260506090100 16 190 1.6 8.0 0.00 0.00 0.00 50 1006.1
20260506084557 15 271 0.0 4.8 0.00 0.00 0.00 51 1006.1
20260506083057 15 199 1.6 4.8 0.00 0.00 0.00 53 1006.1
20260506081547 15 213 0.0 4.8 0.00 0.00 0.00 55 1006.1
20260506073012 12 334 0.0 4.8 0.00 0.00 0.00 57 1006.2
20260506071511 12 113 0.0 0.0 0.00 0.00 0.00 58 1006.2
20260506061503 8 103 3.2 8.0 0.00 0.00 0.00 72 1006.2
20260506044533 8 96 6.4 11.3 0.00 0.00 0.00 71 1006.0